This is the latest recevied weather packets stored in our database for station/object AB0TJ. If no packets are shown the sender has not sent any weather packets the latest 10 day(s).
| Time | Temp. | Humidity | Pressure | Rain* | Wind** | Luminosity | Snow |
|---|---|---|---|---|---|---|---|
| 1777643807 | 6.67° C | 56% | 1019.2 hPa | 0 mm | - | 111 W/m² | - |
| 1777642754 | 5° C | 66% | 1019.1 hPa | 0 mm | - | 68 W/m² | - |
| 1777642196 | 4.44° C | 69% | 1018.9 hPa | 0 mm | - | 47 W/m² | - |
| 1777641652 | 3.89° C | 70% | 1019.3 hPa | 0 mm | - | 31 W/m² | - |
| 1777641099 | 3.33° C | 71% | 1018.9 hPa | 0 mm | - | 27 W/m² | - |
| 1777638911 | 3.33° C | 70% | 1018.9 hPa | 0 mm | - | 10 W/m² | - |
| 1777638379 | 3.33° C | 69% | 1018.5 hPa | 0 mm | - | 6 W/m² | - |
| 1777637869 | 3.33° C | 69% | 1018.5 hPa | 0 mm | - | 3 W/m² | - |
| 1777637319 | 3.33° C | 69% | 1018.6 hPa | 0 mm | - | 1 W/m² | - |
| 1777636739 | 3.33° C | 69% | 1018.2 hPa | 0 mm | - | 0 W/m² | - |
| 1777635604 | 3.33° C | 68% | 1018.5 hPa | 0 mm | - | 0 W/m² | - |
| 1777635054 | 3.89° C | 67% | 1018.4 hPa | 0 mm | - | 0 W/m² | - |
| 1777634572 | 3.89° C | 67% | 1018.5 hPa | 0 mm | - | 0 W/m² | - |
| 1777634064 | 3.89° C | 66% | 1017.9 hPa | 0 mm | - | 0 W/m² | - |
| 1777633579 | 3.89° C | 65% | 1018.2 hPa | 0 mm | - | 0 W/m² | - |
| 1777633015 | 4.44° C | 65% | 1018.1 hPa | 0 mm | - | 0 W/m² | - |
| 1777632466 | 4.44° C | 64% | 1017.9 hPa | 0 mm | - | 0 W/m² | - |
| 1777631949 | 4.44° C | 63% | 1018.1 hPa | 0 mm | - | 0 W/m² | - |
| 1777631404 | 5° C | 63% | 1018 hPa | 0 mm | - | 0 W/m² | - |
| 1777630869 | 5° C | 59% | 1017.8 hPa | 0 mm | - | 0 W/m² | - |
| 1777630316 | 5.56° C | 58% | 1017.9 hPa | 0 mm | - | 0 W/m² | - |
| 1777629754 | 6.11° C | 57% | 1017.7 hPa | 0 mm | - | 0 W/m² | - |
| 1777629237 | 6.11° C | 56% | 1017.7 hPa | 0 mm | - | 0 W/m² | - |
| 1777628673 | 6.67° C | 54% | 1017.7 hPa | 0 mm | - | 0 W/m² | - |
| 1777628159 | 7.22° C | 53% | 1017.7 hPa | 0 mm | - | 0 W/m² | - |
* Rain latest hour (hover to see other rain measurements)
** Current wind speed in m/s (hover to see current wind gust speed)